カタログに戻る

ONEWEB-0047

運用中通信PO
NORAD 45152·PAYLOAD·🇬🇧 United Kingdom

打ち上げ Feb 6, 2020 から Baikonur Cosmodrome

Loading…

次のパス (今後24時間)

TLE

最新Source: CelesTrak SupGP

元期: Sep 14, 2026, 15:55 UTC

1 45152C 20008X   26257.66338380  .00002966  00000+0  85071-2 0  2578
2 45152  87.8913  18.4567 0001711  94.2030  16.4860 13.10368830    13

AllMySatでONEWEB-0047をリアルタイム追跡

Download on the App Store